www.pogodaiklimat.ru

Погода и климат >> Архив погоды >> Канада >> Toronto


АРХИВ ПОГОДЫ в Toronto

Время (UTC), дата Ветер
(напр.,м/с)
 
Видим.   Явления Облачность Т
(С)
Тd
(С)
f
(%)
Тe
(С)
Тes
(С)
Комфортность P
(гПа)
Po
(гПа)
Тmin
(С)
Tmax
(С)
R
(мм)
S
(см)
18 20.03 ЮЗ 4 19 км 9/1 600 м
[Cu hum Ac As]
+5.8 -0.3 65 +2 +5 по сезону 1019.6 998.2 -1.3 +5.8
21 20.03 Ю 3 19 км 9/9 1500 м
[]
+6.1 -0.6 62 +3 +4 по сезону 1017.5 996.1
00 21.03 Ю 3 24 км 10/10 1500 м
[Sc]
+4.3 +0.1 74 +1 +1 по сезону 1017.0 995.6 -1.3 +6.6
03 21.03 Ю 2 19 км 10/10 1500 м
[]
+4.7 +1.0 77 +3 +3 тепло 1016.1 994.8
06 21.03 ЮЗ 3 24 км {ливн. осадки} 10/6 1500 м
[Sc Ac As]
+3.8 +0.9 81 0 0 тепло 1015.6 994.4 -1.3 +6.6 0.0 17
09 21.03 С 3 24 км 10/10 1000 м
[]
+3.7 +1.1 83 -0 -0 тепло 1014.8 993.6
12 21.03 З 3 24 км 1/1 600 м
[Sc Ci fib]
+2.4 -0.0 84 -2 -2 по сезону 1015.0 993.7 +0.9 +6.6
15 21.03 СЗ 6 24 км ясно +8.6 -3.3 43 +5 +8 тепло 1014.6 993.4
18 21.03 СЗ 7 24 км 1/1 600 м
[Cu hum Ci fib]
+11.4 -3.8 34 +9 +12 тепло 1013.1 992.0 +0.9 +11.7
21 21.03 СЗ 13 24 км 5/5 1500 м
[]
+8.2 -3.9 42 +3 +3 по сезону 1013.2 992.0
00 22.03 СЗ 13 24 км 8/6 1000 м
[Cu Sc Ci fib]
+1.9 -6.2 55 -6 -6 прохладно 1016.2 994.8 +0.9 +12.0
03 22.03 СЗ 12 16 км 9/9 1000 м
[]
-0.3 -7.8 57 -9 -9 холодно 1018.4 997.1
06 22.03 С 13 24 км {снег} 4/4 1000 м
[Sc]
-4.2 -13.4 49 -14 -14 очень
холодно
1022.1 1000.7 -4.2 +12.0 0.0 222
09 22.03 С 9 24 км 1/1 600 м
[]
-7.3 -18.8 39 -17 -17 очень
холодно
1026.6 1005.0
12 22.03 С 9 24 км ясно -8.7 -19.7 41 -18 -18 очень
холодно
1030.9 1009.0 -8.8 +12.0
15 22.03 СЗ 8 24 км ясно -7.0 -19.1 37 -15 -14 очень
холодно
1033.9 1011.9
18 22.03 С 6 24 км ясно -4.3 -18.3 33 -11 -7 очень
холодно
1034.1 1012.1 -8.8 -4.0
21 22.03 СЗ 3 24 км ясно -2.5 -16.0 35 -7 -3 холодно 1033.7 1011.7
00 23.03 С 4 24 км ясно -4.2 -14.7 44 -10 -10 очень
холодно
1034.3 1012.2 -8.8 -1.8
03 23.03 С 5 24 км ясно -6.5 -12.8 61 -13 -13 очень
холодно
1035.3 1013.2
06 23.03 СЗ 3 24 км ясно -6.8 -13.3 60 -12 -12 холодно 1035.3 1013.2 -8.8 -1.8 71
09 23.03 З 2 24 км ясно -7.7 -12.6 68 -11 -11 холодно 1035.8 1013.7
12 23.03 Ю 2 24 км ясно -6.7 -11.7 68 -10 -9 прохладно 1036.7 1014.6 -8.7 -1.8
15 23.03 ЮВ 2 24 км 4/4 1000 м
[]
-1.8 -12.3 45 -5 0 прохладно 1037.1 1015.0
18 23.03 ЮВ 3 24 км 8/0
[Ci sp]
+0.8 -13.0 35 -3 +6 прохладно 1035.0 1013.0 -8.7 +1.2
21 23.03 ЮВ 4 24 км 4/0
[]
+2.2 -12.9 32 -2 +1 по сезону 1031.7 1009.8
00 24.03 ЮВ 4 24 км 9/0
[Ac As]
+0.1 -8.4 53 -4 -4 прохладно 1030.3 1008.4 -8.7 +2.8
03 24.03 ЮВ 5 24 км 10/0 2000 м
[]
+0.2 -5.0 68 -6 -6 прохладно 1027.3 1005.6
06 24.03 В 2 24 км 10/0
[As op]
+1.4 -6.2 57 -1 -1 по сезону 1024.3 1002.7 -8.7 +2.8 3
09 24.03 СВ 2 19 км 10/10 1500 м
[]
+1.1 -3.0 74 -2 -2 по сезону 1021.0 999.5
12 24.03 9000 м слабый ливневой дождь н/о +0.9 0.0 94 -3 -3 по сезону 1019.6 998.1 -0.1 +2.8 7
15 24.03 Ю 3 9000 м 10/10 300 м
[]
+3.1 +2.2 94 -1 -1 по сезону 1016.7 995.3
18 24.03 ЮЗ 3 16 км {ливн. осадки} 10/8 1000 м
[Sc Ac As]
+12.4 +6.7 68 +11 +12 тепло 1014.0 992.9 -0.1 +12.4 0.0
21 24.03 ЮВ 3 19 км 10/10 1000 м
[]
+11.9 +5.8 66 +11 +11 тепло 1013.3 992.2
00 25.03 С 7 24 км 10/10 1000 м
[Cu Sc]
+7.2 +3.8 79 +2 +2 по сезону 1017.1 995.8 +0.6 +15.3
03 25.03 С 5 24 км 10/10 300 м
[]
+4.7 +2.7 87 0 0 по сезону 1020.7 999.3
06 25.03 С 4 16 км слабый дождь 10/10 200 м
[Sc]
+3.8 +2.8 93 -1 -1 по сезону 1021.2 1000.0 +0.6 +15.3 0.6 231
09 25.03 СВ 4 9000 м 10/10 200 м
[]
+3.2 +2.2 93 -1 -1 по сезону 1021.7 1000.4
12 25.03 СВ 5 11 км слабый дождь 10/10 200 м
[Frnb]
+1.8 +0.9 94 -4 -4 по сезону 1024.7 1003.3 +1.7 +15.3 3
15 25.03 СВ 4 12 км 10/10 200 м
[]
+2.2 +1.0 92 -3 -3 по сезону 1027.3 1005.8
18 25.03 В 5 24 км {дождь} 10/10 300 м
[Sc]
+3.2 +0.6 83 -2 -2 прохладно 1028.3 1006.8 +1.7 +3.8 4
21 25.03 ЮВ 4 24 км 10/10 300 м
[]
+3.3 +0.2 80 -1 -1 по сезону 1028.3 1006.7
00 26.03 В 4 24 км {дождь} 6/1 300 м
[Sc Ac As Ci fib]
+2.5 -0.6 80 -2 -2 по сезону 1028.5 1006.9 +1.7 +3.9 0.0
03 26.03 В 6 24 км 10/10 300 м
[]
+2.1 -0.5 83 -4 -4 по сезону 1028.4 1006.8
06 26.03 В 7 24 км {дождь} 10/8 300 м
[Sc Ac As]
+1.1 -2.3 78 -5 -5 по сезону 1028.0 1006.4 +1.1 +3.9 60
09 26.03 В 5 24 км 10/10 300 м
[]
+0.9 -0.4 91 -5 -5 по сезону 1025.4 1003.9
12 26.03 В 6 24 км {дождь} 10/10 200 м
[Sc]
+1.8 +0.5 91 -5 -5 по сезону 1024.0 1002.5 +0.5 +3.9 2
15 26.03 В 7 24 км 10/10 200 м
[]
+2.9 +1.4 90 -3 -3 по сезону 1023.0 1001.5
18 26.03 В 7 24 км 10/10 100 м
[Sc]
+2.8 +1.6 92 -3 -3 холодно 1020.5 999.0 +0.5 +3.0
21 26.03 В 5 24 км 10/10 300 м
[]
+4.7 +1.9 82 0 0 по сезону 1018.2 996.8
00 27.03 В 4 19 км осадки на расстоянии 10/10 1000 м
[Sc]
+4.8 +2.5 85 +1 +1 по сезону 1016.9 995.6 +0.5 +5.2
03 27.03 В 1 9000 м 10/10 1000 м
[]
+5.3 +4.0 91 +4 +4 тепло 1015.4 994.1
06 27.03 В 1 6000 м {дождь, морось} 10/10 600 м
[St]
+5.9 +5.5 97 +5 +5 тепло 1013.3 992.1 +0.5 +5.9 1 161
09 27.03 ЮВ 3 3200 м 10/10 50 м
[]
+6.7 +6.3 97 +4 +4 тепло 1011.5 990.4
12 27.03 ЮВ 1 1200 м слабый дождь 5/0 50 м
[As op]
+6.2 +5.9 98 +5 +5 тепло 1012.3 991.1 +4.7 +5.9 2
15 27.03 ЮЗ 2 4000 м 8/8 100 м
[]
+9.6 +9.3 98 +8 +10 тепло 1012.3 991.2

 

Местоположение метеостанции Toronto (Канада): широта 43.67 долгота -79.63 высота над уровнем моря 173 м.

В архиве по умолчанию представлена погода в Toronto за последнюю неделю. Архивные данные за месяц целиком и за предыдущие месяцы, начиная с января 2011 года, Вы можете получить, выбрав интересующий диапазон дат из раскрывающегося списка и нажав кнопку "Ввод!".

Внимание! Время в таблицах - всемирное. Для получения местного времени необходимо прибавить поправку, которая в Toronto равна -5 ч.

Смотрите также архив погоды в соседних городах и на ближайших метеорологических станциях:

Погода в Toronto Aes Hq (Канада) (18 км)
Погода в Toronto City (Канада) (19 км)
Погода в Toronto Island Arpt (Канада) (19 км)
Погода в Toronto Buttonville (Канада) (31 км)
Погода в Buttonville (Канада) (31 км)
Погода в Burlington Piers (Канада) (43 км)
Погода в Hamilton Rbg Cs (Канада) (49 км)
Погода в Guelph Turfgrass (Канада) (49 км)
Погода в Vineland Station Rc (Канада) (58 км)
Погода в Port Weller (Канада) (58 км)

Пояснения к столбцам:

Ветер - указаны скорость ветра в м/с - средняя за 10 мин, порывы в срок и между сроками (в фигурных скобках) и направление, откуда дует ветер: С - северный, СВ - северо-восточный, В - восточный, ЮВ - юго-восточный, Ю - южный, ЮЗ - юго-западный, З - западный, СЗ - северо-западный.
Видимость - горизонтальная дальность видимости в метрах или километрах. При видимости от 1 до 10 км при отсутствии осадков обычно наблюдается дымка, при ухудшении видимости до 1 км и менее - туман. В сухую погоду видимость может ухудшаться дымом, пылью или мглою.
Явления - указаны атмосферные явления, наблюдавшиеся в срок или в последний час перед сроком; фигурными скобками обозначены явления, наблюдавшиеся между сроками (за 1-3 часа до срока); квадратными скобками обозначены град или гололедные отложения с указанием их диаметра в мм.
Облачность - указаны через наклонную черту общая и нижняя облачность в баллах и высота нижней границы облаков в метрах; квадратными скобками обозначены формы облаков: Ci - перистые, Cs - перисто-слоистые, Cc - перисто-кучевые, Ac - высококучевые, As - высокослоистые, Sc - слоисто-кучевые, Ns - слоисто-дождевые, Cu - кучевые, Cb - кучево-дождевые. Подробнее классификацию облаков см. в Атласе облаков (PDF).
T - Температура воздуха - температура, измеренная на высоте 2 м над землей.
Td - Температура точки росы - температура, при понижении до которой содержащийся в воздухе водяной пар достигнет насыщения.
f - Относительная влажность воздуха - влажноcть воздуха, измеренная на высоте 2 м над землей.
Te - Эффективная температура - температура, которую ощущает одетый по сезону человек в тени. Характеристика душности погоды. При расчете учитывается влияние влажности воздуха и скорости ветра на теплоощущения человека.
Tes - Эффективная температура на солнце - температура, которую ощущает человек, с поправкой на солнечный нагрев. Характеристика знойности погоды. Зависит от высоты солнца над горизонтом, облачности и скорости ветра. Ночью, в пасмурную погоду, а также при ветре 12 м/с и более поправка равна нулю.
P - Атмосферное давление - приведенное к уровню моря атмосферное давление.
Po - Атмосферное давление - измеренное на уровне метеостанции атмосферное давление.
Tmin - Минимальная температура - минимум температуры воздуха на высоте 2 м над землей.
Tmax - Максимальная температура - максимум температуры воздуха на высоте 2 м над землей.
R - Количество осадков - Количество выпавших осадков, мм. При наведении курсора мыши на число - период времени, за который выпало указанное количество осадков.
S - Снежный покров - Высота снежного покрова, см. При наведении курсора мыши на число - состояние снежного покрова и степень покрытия местности в баллах.